カタログに戻る

FENGYUN 1C DEB

運用中SSO
NORAD 31959·DEBRIS·🇨🇳 China

打ち上げ May 10, 1999 から Taiyuan Satellite Launch Center

Loading…

次のパス (今後24時間)

TLE

最新Source: Space-Track

元期: Sep 11, 2026, 22:27 UTC

1 31959U 99025CNL 26254.93558152  .00004766  00000-0  12115-2 0  9994
2 31959  98.4991 133.1777 0029455  46.1699 314.1923 14.50924276683109

AllMySatでFENGYUN 1C DEBをリアルタイム追跡

Download on the App Store